Location: Unspecified
(52.4292°N, 19.3359°E)
Time: 16:41:18
(UTC+02:00)

Transit 2A Rocket - Pass Details

Date: 26 May 2024
Orbit: 583 x 910 km, 66.7° (Epoch: 14 June)

Event Time Altitude Azimuth Distance (km) Brightness Sun altitude
Rises 04:17:04 0° 217° (SW) 3,015 - -2.6°
Exits shadow 04:17:39 - 217° (SW) 2,785 7.2 -2.5°
Reaches altitude 10° 04:19:16 10° 218° (SW) 2,150 6.7 -2.3°
Maximum altitude 04:24:11 90° 66° (ENE) 753 5.1 -1.7°
Drops below altitude 10° 04:29:40 10° 40° (NE) 2,386 9.4 -1.1°
Sets 04:32:14 0° 40° (NE) 3,371 10.5 -0.8°
